Mytilini, Greece

2:29 AM EEST on September 24, 2017 (GMT +0300)
Odysseas Elytis

Weather History for LGMT - April, 2017

Change the Weather History Date:

Friday, April 21, 2017

  Actual Average Record
Temperature  
Mean Temperature 56 °F -  
Max Temperature 59 °F 73 °F 84 °F (2008)
Min Temperature 53 °F 57 °F 46 °F (2003)
Degree Days  
Heating Degree Days 9    
Growing Degree Days 6 (Base 50)    
Moisture  
Dew Point 45 °F    
Average Humidity 63    
Maximum Humidity 77    
Minimum Humidity 48    
Precipitation  
Precipitation 0.00 in 0.04 in - ()
Sea Level Pressure  
Sea Level Pressure 30.07 in    
Wind  
Wind Speed 6 mph ()    
Max Wind Speed 12 mph    
Max Gust Speed -    
Visibility 6.2 miles    
Events      
Averages and records for this station are not official NWS values.
T = Trace of Precipitation, MM = Missing Value Source: Averaged Metar Reports

Daily Weather History Graph

Daily Weather History Graph

Search for Another Location

Airport or City:

Trip Planner

Search our weather history database for the weather conditions in past years. The results will help you decide how hot, cold, wet, or windy it might be!

Date:

Astronomy

Apr. 21, 2017 Rise Set
Actual Time 6:28 AM EEST 7:56 PM EEST
Civil Twilight 6:00 AM EEST 8:24 PM EEST
Nautical Twilight 5:26 AM EEST 8:58 PM EEST
Astronomical Twilight 4:51 AM EEST 9:34 PM EEST
Moon 3:30 AM EEST (4/21) 2:22 PM EEST (4/21)
Length of Visible Light 14h 24m
Length of Day
13h 28m
Waning Crescent, 31% of the Moon is Illuminated
Apr 21
Waning Crescent
Apr 26
New
May 3
First Quarter
May 11
Full
May 19
Last Quarter

Hourly Weather History & Observations

Time (EEST) Temp. Dew Point Humidity Pressure Visibility Wind Dir Wind Speed Gust Speed Precip Events Conditions
4:50 AM 55.4 °F 48.2 °F 77% 29.98 in 6.2 mi WNW 6.9 mph - N/A   Partly Cloudy
5:20 AM 55.4 °F 46.4 °F 72% 30.01 in 6.2 mi WNW 8.1 mph - N/A   Partly Cloudy
5:50 AM 55.4 °F 46.4 °F 72% 30.01 in 6.2 mi WNW 6.9 mph - N/A   Partly Cloudy
6:00 AM 55 °F 46 °F 64% 30.01 in 6 mi WNW 6.9 mph - -   Scattered Clouds
6:20 AM 55.4 °F 46.4 °F 72% 30.01 in 6.2 mi WNW 6.9 mph - N/A   Partly Cloudy
6:50 AM 55.4 °F 48.2 °F 77% 30.01 in 6.2 mi WNW 6.9 mph - N/A   Partly Cloudy
7:20 AM 55.4 °F 48.2 °F 77% 30.01 in 6.2 mi WNW 6.9 mph - N/A   Partly Cloudy
7:50 AM 55.4 °F 46.4 °F 72% 30.01 in 6.2 mi WNW 5.8 mph - N/A   Partly Cloudy
8:20 AM 55.4 °F 46.4 °F 72% 30.01 in 6.2 mi WNW 5.8 mph - N/A   Partly Cloudy
8:50 AM 57.2 °F 46.4 °F 67% 30.04 in 6.2 mi NNW 5.8 mph - N/A   Partly Cloudy
9:00 AM 56 °F 47 °F 64% 30.05 in 6 mi NNW 5.8 mph - -   Scattered Clouds
9:20 AM 57.2 °F 46.4 °F 67% 30.04 in 6.2 mi NNW 5.8 mph - N/A   Partly Cloudy
9:50 AM 57.2 °F 44.6 °F 63% 30.04 in 6.2 mi NW 5.8 mph - N/A   Partly Cloudy
10:20 AM 57.2 °F 44.6 °F 63% 30.06 in 6.2 mi NW 6.9 mph - N/A   Partly Cloudy
11:20 AM 57.2 °F 42.8 °F 59% 30.06 in 6.2 mi WNW 8.1 mph - N/A   Partly Cloudy
11:50 AM 57.2 °F 44.6 °F 63% 30.06 in 6.2 mi NW 11.5 mph - N/A   Scattered Clouds
12:00 PM 57 °F 44 °F 51% 30.08 in 6 mi NW 11.5 mph - -   Partly Cloudy
12:20 PM 57.2 °F 44.6 °F 63% 30.06 in 6.2 mi NW 11.5 mph - N/A   Scattered Clouds
12:50 PM 57.2 °F 44.6 °F 63% 30.06 in 6.2 mi NNW 10.4 mph - N/A   Scattered Clouds
1:20 PM 59.0 °F 44.6 °F 59% 30.09 in 6.2 mi NNW 9.2 mph - N/A   Scattered Clouds
1:50 PM 59.0 °F 44.6 °F 59% 30.09 in 6.2 mi NNW 5.8 mph - N/A   Scattered Clouds
2:20 PM 59.0 °F 44.6 °F 59% 30.09 in 6.2 mi NNW 5.8 mph - N/A   Scattered Clouds
2:50 PM 59.0 °F 44.6 °F 59% 30.09 in 6.2 mi NW 6.9 mph - N/A   Scattered Clouds
3:00 PM 60 °F 45 °F 48% 30.11 in 6 mi NW 6.9 mph - -   Partly Cloudy
3:20 PM 59.0 °F 44.6 °F 59% 30.09 in 6.2 mi NW 6.9 mph - N/A   Scattered Clouds
4:20 PM 59.0 °F 44.6 °F 59% 30.09 in 6.2 mi WNW 6.9 mph - N/A   Scattered Clouds
4:50 PM 59.0 °F 44.6 °F 59% 30.09 in 6.2 mi WNW 4.6 mph - N/A   Scattered Clouds
5:20 PM 59.0 °F 44.6 °F 59% 30.09 in 6.2 mi West 4.6 mph - N/A   Scattered Clouds
5:50 PM 59.0 °F 44.6 °F 59% 30.09 in 6.2 mi WNW 4.6 mph - N/A   Scattered Clouds
6:00 PM 59 °F 45 °F 49% 30.11 in 6 mi WNW 4.6 mph - -   Partly Cloudy
6:20 PM 59.0 °F 44.6 °F 59% 30.09 in 6.2 mi WNW 4.6 mph - N/A   Scattered Clouds
6:50 PM 57.2 °F 44.6 °F 63% 30.09 in 6.2 mi WNW 5.8 mph - N/A   Scattered Clouds
7:20 PM 57.2 °F 44.6 °F 63% 30.09 in 6.2 mi WNW 4.6 mph - N/A   Scattered Clouds
7:50 PM 57.2 °F 44.6 °F 63% 30.09 in 6.2 mi WNW 4.6 mph - N/A   Partly Cloudy
8:20 PM 55.4 °F 44.6 °F 67% 30.09 in 6.2 mi WNW 4.6 mph - N/A   Partly Cloudy
8:50 PM 53.6 °F 41.0 °F 62% 30.12 in 6.2 mi NW 6.9 mph - N/A   Partly Cloudy
9:00 PM 54 °F 40 °F 49% 30.13 in 6 mi NW 6.9 mph - -   Scattered Clouds
9:20 PM 53.6 °F 41.0 °F 62% 30.12 in 6.2 mi NW 6.9 mph - N/A   Partly Cloudy
9:50 PM 53.6 °F 39.2 °F 58% 30.12 in 6.2 mi NW 8.1 mph - N/A   Scattered Clouds
10:20 PM 53.6 °F 39.2 °F 58% 30.12 in 6.2 mi WNW 8.1 mph - N/A   Scattered Clouds